[[{"header":{"parameterUnit":"m.s-1","parameterCategory":1,"la1":30.2991,"la2":30.254,"lo1":-89.0895,"lo2":-89.0444,"dy":0.0017,"dx":0.0017,"nx":28,"ny":28,"refTime":"2025-04-30T09:00:00:Z","depth":0,"parameterNumber":2,"parameterNumberName":"U-component_of_WINDS"},"data":[0,0,0,0,0,0,0,0,0,0,0,0,0,0,0,0,0,0,0,0,0,0,0,0,0,0,0,0,0,0,0,0,0,0,0,0,0,0,0,0,0,0,0,0,0,0,0,0,0,0,0,0,0,0,0,0,0,0,-1.5994,-1.5998,0,-1.6307,-1.6311,-1.6314,-1.6457,-1.6457,-1.6457,-1.6456,-1.6771,-1.678,-1.6788,0,0,0,0,0,0,0,0,0,0,0,0,0,-1.5516,-1.5524,-1.5994,-1.5998,-1.6002,-1.6307,-1.6311,-1.6315,-1.6457,-1.6457,-1.6456,-1.6456,-1.6768,-1.6779,-1.6789,0,0,0,0,0,0,0,0,0,0,0,0,0,-1.5765,-1.5527,-1.5993,-1.611,-1.6123,-1.6306,-1.6311,-1.6316,-1.6457,-1.6457,-1.6456,-1.6456,-1.6765,-1.6778,-1.6791,-1.6879,0,0,-1.683,-1.6836,0,0,0,0,0,0,0,0,-1.5751,-1.5783,-1.6089,-1.6102,-1.6118,-1.6343,-1.6258,-1.6505,-1.6457,-1.633,-1.6456,-1.6456,-1.6629,-1.6653,-1.6712,-1.6894,-1.6908,-1.6831,-1.6839,-1.6845,-1.6848,0,0,0,0,0,0,0,-1.5734,-1.577,-1.6118,-1.6093,-1.6111,-1.6145,-1.618,-1.6306,-1.6478,-1.6341,-1.6352,-1.6388,-1.6636,-1.67,-1.6721,-1.6912,-1.6831,-1.6843,-1.6851,-1.6856,-1.7185,-1.7186,0,0,0,0,0,0,-1.5698,-1.5755,-1.6108,-1.6127,-1.593,-1.6154,-1.6193,-1.6271,-1.6477,-1.6508,-1.6388,-1.6393,-1.6678,-1.6706,-1.6732,-1.6852,-1.6845,-1.6857,-1.6864,-1.7184,-1.7185,-1.7186,0,0,0,0,0,0,-1.5687,-1.5728,-1.6095,-1.5944,-1.5994,-1.6163,-1.6249,-1.6277,-1.6341,-1.6512,-1.6543,-1.6421,-1.6678,-1.6714,-1.6843,-1.6865,-1.6863,-1.6875,-1.7183,-1.7184,-1.7186,-1.709,0,0,0,0,0,0,-1.5673,-1.5723,-1.576,-1.5944,-1.6001,-1.6201,-1.625,-1.6284,-1.6363,-1.6373,-1.6552,-1.6581,-1.6681,-1.6823,-1.6856,-1.6883,-1.6885,-1.7182,-1.7184,-1.7185,-1.7092,-1.7088,-1.7084,0,0,0,0,0,-1.5655,-1.5719,-1.5761,-1.5803,-1.605,-1.6202,-1.6235,-1.635,-1.6364,-1.6402,-1.6513,-1.6575,-1.6857,-1.6835,-1.6873,-1.6904,-1.7181,-1.7183,-1.7185,-1.7093,-1.7089,-1.7085,0,0,0,0,0,0,-1.553,-1.5745,-1.5794,-1.5919,-1.6042,-1.6226,-1.6277,-1.6341,-1.6461,-1.6465,-1.6602,-1.6641,-1.6757,-1.6844,-1.6815,-1.7002,-1.7024,-1.7034,-1.6942,-1.6938,-1.6935,-1.6912,-1.6896,0,0,0,0,0,-1.5518,-1.5624,-1.5806,-1.5898,-1.5958,-1.6106,-1.6177,-1.6255,-1.6387,-1.6439,-1.6559,-1.6683,-1.68,-1.6874,-1.6991,-1.7105,-1.7146,-1.7145,-1.7141,-1.7138,-1.7145,-1.7213,-1.7215,-1.7193,-1.7193,-1.7193,0,0,-1.5492,-1.5622,-1.5681,-1.5877,-1.5981,-1.6088,-1.6149,-1.6258,-1.6339,-1.6455,-1.6585,-1.6677,-1.6824,-1.6947,-1.7006,-1.7022,-1.716,-1.714,-1.7136,-1.7146,-1.7215,-1.7217,-1.7219,-1.7195,-1.7194,-1.7194,0,0,-1.55,-1.5609,-1.57,-1.5803,-1.5961,-1.606,-1.6081,-1.6257,-1.6323,-1.6456,-1.6546,-1.6642,-1.684,-1.6943,-1.702,-1.7068,-1.713,-1.7102,-1.7083,-1.7148,-1.715,-1.7152,-1.717,-1.7175,-1.7109,-1.7108,-1.7108,0,-1.5447,-1.5613,-1.5737,-1.5843,-1.5927,-1.6039,-1.6132,-1.6225,-1.6412,-1.6467,-1.6482,-1.6735,-1.6842,-1.699,-1.7002,-1.7061,-1.709,-1.7083,-1.714,-1.7143,-1.7147,-1.7166,-1.7172,-1.7104,-1.7105,-1.7105,-1.7106,0,-1.5542,-1.5655,-1.5709,-1.5889,-1.5979,-1.6077,-1.6215,-1.6291,-1.6362,-1.6458,-1.6592,-1.6725,-1.6872,-1.6912,-1.6982,-1.7071,-1.7076,-1.7114,-1.7139,-1.7143,-1.7163,-1.7171,-1.7098,-1.7099,-1.7101,-1.7102,0,0,-1.5479,-1.5728,-1.5746,-1.583,-1.6013,-1.6102,-1.6205,-1.6351,-1.6414,-1.6538,-1.6629,-1.6795,-1.6832,-1.6919,-1.7001,-1.7058,-1.7089,-1.7089,-1.7095,-1.7085,-1.7197,-1.7168,-1.7174,-1.7131,-1.7133,-1.7135,-1.7185,0,-1.5513,-1.5706,-1.5821,-1.5966,-1.6072,-1.6181,-1.6271,-1.6392,-1.6486,-1.6589,-1.6692,-1.6808,-1.6847,-1.6901,-1.6962,-1.7072,-1.7113,-1.707,-1.7216,-1.722,-1.7177,-1.7185,-1.7155,-1.7196,-1.7193,-1.7195,-1.7196,0,-1.5579,-1.5704,-1.586,-1.6033,-1.6082,-1.6161,-1.6304,-1.6402,-1.6541,-1.6605,-1.6704,-1.6787,-1.69,-1.6916,-1.7073,-1.7041,-1.7108,-1.7171,-1.7175,-1.7194,-1.7208,-1.7204,-1.7212,-1.7218,-1.7209,-1.7208,-1.7207,0,-1.5519,-1.5726,-1.5847,-1.5915,-1.6119,-1.6172,-1.6259,-1.6399,-1.648,-1.6604,-1.6658,-1.6793,-1.6867,-1.6969,-1.7086,-1.7087,-1.7232,-1.7257,-1.7288,-1.7285,-1.7314,-1.7311,-1.7332,-1.7355,-1.7355,-1.7355,-1.7355,0,-1.5546,-1.5637,-1.5823,-1.5897,-1.6003,-1.6134,-1.6235,-1.633,-1.6454,-1.6548,-1.6649,-1.6735,-1.6884,-1.6988,-1.708,-1.7197,-1.7229,-1.7284,-1.7307,-1.7276,-1.7268,-1.7321,-1.7322,-1.7357,-1.7356,-1.7356,-1.7355,0,-1.5497,-1.5625,-1.5765,-1.5947,-1.5995,-1.6064,-1.622,-1.6296,-1.6395,-1.6513,-1.6548,-1.6703,-1.6831,-1.6958,-1.7129,-1.7191,-1.7307,-1.7338,-1.726,-1.7274,-1.7298,-1.7294,-1.7355,-1.737,-1.738,-1.738,-1.7379,0,-1.5506,-1.5579,-1.577,-1.5841,-1.5927,-1.604,-1.6123,-1.6255,-1.6337,-1.6503,-1.6559,-1.6695,-1.6811,-1.701,-1.7137,-1.7269,-1.7304,-1.7317,-1.7325,-1.7291,-1.7306,-1.73,-1.7309,-1.7312,-1.7312,-1.7311,-1.731,0,-1.5508,-1.5569,-1.5686,-1.5826,-1.5923,-1.6039,-1.6158,-1.621,-1.6365,-1.6452,-1.6585,-1.6675,-1.6852,-1.6985,-1.7133,-1.7221,-1.7292,-1.7307,-1.7322,-1.729,-1.7242,-1.727,-1.7251,-1.7305,-1.7306,-1.7306,-1.7306,-1.7307,-1.549,-1.5561,-1.5707,-1.5834,-1.5938,-1.6048,-1.6128,-1.6238,-1.6352,-1.6508,-1.6578,-1.6712,-1.6851,-1.7056,-1.7144,-1.725,-1.7268,-1.7288,-1.7294,-1.7297,-1.729,-1.7225,-1.7277,-1.7278,-1.7278,-1.7278,-1.7278,0,-1.5499,-1.5599,-1.5714,-1.5879,-1.5979,-1.6039,-1.6174,-1.6253,-1.6371,-1.6495,-1.6608,-1.6761,-1.6892,-1.703,-1.7168,-1.7227,-1.7262,-1.7259,-1.7256,-1.7275,-1.7266,-1.724,-1.7228,-1.7228,-1.7228,-1.7227,-1.7227,-1.7227,-1.5515,-1.5639,-1.5716,-1.5892,-1.5991,-1.6125,-1.6197,-1.6299,-1.6399,-1.6566,-1.6676,-1.6766,-1.6896,-1.7045,-1.7167,-1.7205,-1.7251,-1.7238,-1.7284,-1.7272,-1.7276,-1.7279,-1.7256,-1.7247,-1.7247,-1.7285,-1.7286,-1.7286]},{"header":{"parameterUnit":"m.s-1","parameterCategory":1,"la1":30.2991,"la2":30.254,"lo1":-89.0895,"lo2":-89.0444,"dy":0.0017,"dx":0.0017,"nx":28,"ny":28,"refTime":"2025-04-30T09:00:00:Z","depth":0,"parameterNumber":3,"parameterNumberName":"V-component_of_WINDS"},"data":[0,0,0,0,0,0,0,0,0,0,0,0,0,0,0,0,0,0,0,0,0,0,0,0,0,0,0,0,0,0,0,0,0,0,0,0,0,0,0,0,0,0,0,0,0,0,0,0,0,0,0,0,0,0,0,0,0,0,3.8703,3.8705,0,3.8887,3.8889,3.8891,3.8937,3.8936,3.8934,3.8933,3.9122,3.9128,3.9134,0,0,0,0,0,0,0,0,0,0,0,0,0,3.8389,3.8395,3.8703,3.8705,3.8707,3.8887,3.889,3.8892,3.8937,3.8935,3.8934,3.8933,3.912,3.9127,3.9134,0,0,0,0,0,0,0,0,0,0,0,0,0,3.8545,3.8397,3.8702,3.8751,3.8758,3.8886,3.889,3.8893,3.8937,3.8935,3.8934,3.8932,3.9117,3.9126,3.9135,3.9228,0,0,3.9163,3.9167,0,0,0,0,0,0,0,0,3.8536,3.8556,3.8742,3.8748,3.8756,3.8887,3.8848,3.9005,3.8938,3.8869,3.8933,3.8931,3.9045,3.906,3.9099,3.9237,3.9245,3.9164,3.917,3.9174,3.9176,0,0,0,0,0,0,0,3.8525,3.8549,3.8776,3.8745,3.8753,3.8764,3.8784,3.8878,3.8965,3.8875,3.8879,3.89,3.9048,3.909,3.9103,3.9248,3.9164,3.9172,3.9178,3.9181,3.9472,3.9474,0,0,0,0,0,0,3.8506,3.8539,3.877,3.8781,3.8639,3.8771,3.8794,3.8847,3.8964,3.898,3.8901,3.8901,3.9075,3.9093,3.911,3.9227,3.9174,3.9182,3.9188,3.947,3.9472,3.9475,0,0,0,0,0,0,3.8499,3.8526,3.8762,3.8661,3.8692,3.8779,3.8838,3.8851,3.8893,3.8984,3.9,3.8927,3.9074,3.9097,3.9199,3.9234,3.9187,3.9195,3.9467,3.947,3.9473,3.946,0,0,0,0,0,0,3.849,3.8523,3.8559,3.8662,3.8698,3.8848,3.884,3.8856,3.8908,3.891,3.9013,3.9028,3.9074,3.9185,3.9208,3.9246,3.9202,3.9464,3.9469,3.9472,3.9458,3.9463,3.9467,0,0,0,0,0,3.8478,3.8548,3.8561,3.8589,3.8745,3.885,3.887,3.8922,3.8911,3.8948,3.9007,3.9025,3.9226,3.9195,3.9221,3.9262,3.9462,3.9467,3.9472,3.9456,3.9462,3.9467,0,0,0,0,0,0,3.8448,3.8563,3.8578,3.8683,3.8756,3.8857,3.8906,3.8927,3.9005,3.9003,3.9065,3.9088,3.9185,3.9234,3.9196,3.9358,3.9344,3.9355,3.9323,3.9329,3.9333,3.9319,3.921,0,0,0,0,0,3.8453,3.8529,3.8625,3.8709,3.8745,3.8819,3.8866,3.89,3.8979,3.901,3.9076,3.9151,3.9231,3.9283,3.9362,3.9465,3.9488,3.9507,3.9511,3.9514,3.9522,3.958,3.959,3.9491,3.9491,3.9491,0,0,3.8466,3.8538,3.8582,3.8705,3.8765,3.8842,3.8844,3.8926,3.8984,3.9022,3.9122,3.9173,3.9261,3.9363,3.9412,3.9407,3.9555,3.952,3.9522,3.9529,3.9586,3.9596,3.9604,3.9494,3.9494,3.9493,0,0,3.8527,3.8589,3.8665,3.8726,3.8818,3.8867,3.8885,3.8983,3.9018,3.9119,3.915,3.9219,3.9356,3.9418,3.9467,3.9551,3.957,3.9575,3.9598,3.9654,3.9662,3.9669,3.9699,3.9709,3.9583,3.9583,3.9583,0,3.853,3.8648,3.8702,3.8782,3.8835,3.8874,3.8951,3.9008,3.912,3.9156,3.9149,3.9322,3.9384,3.9501,3.9522,3.9561,3.9583,3.9564,3.9656,3.9664,3.9672,3.9701,3.9712,3.9583,3.9583,3.9583,3.9583,0,3.8647,3.8728,3.8779,3.8886,3.8945,3.9024,3.909,3.9143,3.9172,3.9221,3.9323,3.9399,3.9494,3.9524,3.9553,3.9646,3.964,3.9644,3.9631,3.968,3.9708,3.972,3.9583,3.9583,3.9583,3.9583,0,0,3.8695,3.8831,3.8849,3.8898,3.9002,3.9066,3.9146,3.9239,3.9283,3.9359,3.9428,3.9543,3.9547,3.9603,3.9639,3.9688,3.975,3.9686,3.9689,3.9695,3.9856,3.9853,3.9865,3.9763,3.9766,3.9768,3.9849,0,3.8769,3.8913,3.8964,3.9083,3.9158,3.9196,3.9265,3.9337,3.9385,3.9456,3.9509,3.959,3.9589,3.9623,3.9673,3.9732,3.9783,3.9727,3.9827,3.983,3.9804,3.988,3.9876,3.9949,3.986,3.9862,3.9864,0,3.8874,3.8952,3.9078,3.9173,3.9206,3.9268,3.9357,3.9424,3.9506,3.9537,3.9599,3.9632,3.9717,3.9699,3.9817,3.9777,3.9822,3.9857,3.9861,3.9872,3.985,3.9893,3.9974,3.9984,3.9882,3.988,3.9879,0,3.8896,3.9032,3.9125,3.9166,3.9279,3.9321,3.937,3.945,3.9502,3.958,3.9615,3.9702,3.9749,3.9815,3.987,3.9852,3.9983,3.997,4.0012,4.001,4.0038,4.0035,4.0126,4.0066,4.0066,4.0066,4.0066,0,3.8973,3.9048,3.9136,3.9193,3.9279,3.9337,3.9421,3.9472,3.9543,3.961,3.9648,3.9711,3.978,3.9852,3.9896,3.9987,4.0008,4.0036,4.0046,4.0032,4.0029,4.0062,4.0058,4.0069,4.0068,4.0068,4.0067,0,3.9011,3.9073,3.9177,3.9275,3.9301,3.936,3.9444,3.9501,3.9551,3.9636,3.966,3.9738,3.9824,3.9886,3.9997,4.0027,4.0124,4.0135,4.0097,4.0102,4.014,4.0136,4.0257,4.0275,4.0202,4.0203,4.0203,0,3.9056,3.9115,3.9219,3.9268,3.9316,3.9393,3.9447,3.9507,3.9561,3.9658,3.9703,3.9792,3.9867,4.0003,4.007,4.0155,4.0168,4.0204,4.0181,4.0165,4.0168,4.0164,4.017,4.0208,4.0208,4.0209,4.0209,0,3.9129,3.9157,3.9233,3.932,3.9382,3.9454,3.9525,3.9563,3.9635,3.9694,3.9783,3.984,3.9954,4.0042,4.0134,4.0184,4.0209,4.0216,4.023,4.0216,4.0191,4.0205,4.0106,4.0213,4.0212,4.0212,4.0212,4.0212,3.9173,3.9227,3.9309,3.9392,3.9452,3.9518,3.9576,3.9633,3.9708,3.9805,3.9836,3.9928,4.0008,4.0134,4.0186,4.0258,4.0257,4.0277,4.0282,4.0287,4.0286,4.018,4.0275,4.0275,4.0275,4.0275,4.0275,0,3.9248,3.9302,3.9378,3.9477,3.9542,3.956,3.964,3.9693,3.9774,3.9847,3.9919,4.0021,4.0106,4.018,4.0268,4.0312,4.0326,4.0333,4.0331,4.0342,4.0283,4.0261,4.0321,4.0321,4.0321,4.0321,4.0321,4.0321,3.9294,3.9387,3.9424,3.9547,3.9601,3.9691,3.9735,3.9796,3.9855,3.9967,4.0038,4.0085,4.0158,4.0252,4.0331,4.0351,4.0382,4.0387,4.0408,4.0352,4.0346,4.0341,4.0321,4.0393,4.0393,4.0462,4.0463,4.0463]}]]